Location: *
(37.5724°S, 58.0067°E)
Time: 11:36:08
(UTC+00:00)

Cosmos 2195 Rocket - Pass Details

Date: 26 September 2020
Orbit: 948 x 994 km, 82.9° (Epoch: 30 October)

Event Time Altitude Azimuth Distance (km) Brightness Sun altitude
Exits shadow 16:38:12 86° 132° (SE) 965 4.3 -29.3°
Drops below altitude 10° 16:44:18 10° 173° (S) 2,710 7.0 -30.4°
Sets 16:46:50 0° 172° (S) 3,667 7.8 -30.8°
